Weather in Beringovsky

Russia / Chukotka Autonomous Okrug     63°03′42″N   179°15′29″E
temp.,
°C
wind,
m/s
gust,
m/s
humid.,
%
clouds,
%
prec.,
mm/h
press.,
hPa
HPBL,
m
17 august, wed
wed1700:00+7e7864100 0.0 1016912
03:00+7e7865100 0.0 1015923
06:00+7e676692 0.0 10141091
09:00+7e6668100 0.0 1015968
12:00+7ene6668100 0.1 1014999
15:00+7ene546990 0.0 1014805
18:00+7ene3367100 0.1 1013981
21:00+6ene2267100 0.0 1014596
18 august, thu
thu1800:00+6e1167100 0.0 1013523
03:00+6ene1166100 0.0 1012485
06:00+6nne116599 0.0 1012386
09:00+7ene126618 0.0 1012632
12:00+7e327137 0.0 1012551
15:00+8ene337060 0.0 1011555
18:00+8e2269100 0.0 1012491
21:00+7ene337762 0.0 1013482
19 august, fri
fri1900:00+7ne567098 0.1 1013890
03:00+7ne6766100 0.0 10121032
06:00+7ne897065 0.0 10121112
09:00+6ne8971100 0.1 10121177
12:00+7ne7879100 0.3 1012957
15:00+7ne8978100 0.1 10121015
18:00+7ne6882100 0.5 1012842
21:00+7ne5679100 0.2 1013647
20 august, sat
sat2000:00+7ne4574100 0.3 1014585
03:00+7nne4576100 0.1 1014592
06:00+7n4585100 0.1 1015483
09:00+8n5684100 0.3 1016830
12:00+8n5682100 0.6 1016730
15:00+8n5681100 0.2 1016690
18:00+8nnw4584100 0.3 1017506
21:00+8nnw3587100 0.4 1018399
21 august, sun
sun2100:00+7nw3385100 0.5 1018282
03:00+7nw2382100 0.0 1018240
06:00+7nnw2384100 0.1 1019263
09:00+8nnw3382100 0.1 1020426
12:00+10ne337095 0.1 1019654
15:00+9ne337388 0.0 1019521
18:00+9ne227835 0.0 1019320
21:00+8ne128538 0.0 1020171